全球星 M055星 (GLOBALSTAR M055)

导读 | 星芒AI

GLOBALSTAR M055 是 Globalstar 卫星通信公司运营的一颗低轨移动通信卫星,属于第二代 Globalstar 卫星星座的一部分。该卫星主要用于提供语音和数据通信服务,支持手持和移动终端在偏远地区的连接。M055 采用先进通信技术,提升信号覆盖和传输效率。它运行在约 1414 公里的近地轨道,设计寿命约为 15 年,是全球卫星通信网络的重要节点。

基本信息
目录编号:
25910
目录名称:
GLOBALSTAR M055
国际标识:
1999-049D
轨道中心:
EARTH
卫星名称:
全球星 M055星
卫星全名:
全球星 M055星 (GLOBALSTAR M055)
卫星状态:
在轨 (已飞行9534 天)
发射日期:
1999-09-22 UTC
国别 :
(GLOB)
星等 :
--
轨道信息
数据来源 国际轨道数据 AOE轨道数据
星历时间 2025-10-28T20:11:32+0800
1天前
查看轨道信息
2025-10-25T08:00:00+0800
4天前
查看轨道信息
半长轴 7929.849km 7929.851km
偏心率 0.0007138 0.0007097
轨道倾角 52.004° 52.004°
近地点辐角 50.487° 43.196°
升交点赤经 337.767° 347.810°
平近点角 309.661° 263.341°
近地点 1546.053km 1546.088km
远地点 1557.375km 1557.344km
周期 117.127分钟 117.127分钟
每日圈数 12.294345 12.294342
详细信息
固有亮度:
5
最大亮度:
7.9
平衡模式:
三轴稳定
覆盖范围:
全球
运营商:
全球星公司
运营商所在国:
美国
使用方式:
暂无
卫星简介
全球星星座由48颗卫星加8颗备份星组成。这些卫星分布在8个倾角为52度的圆形轨道平面上,每个轨道平面6颗卫星,另有1 颗备用星。轨道高度约为1414km,传输时延和处理时延小于300ms,整个系统的覆盖区为南北纬70度以内的地区。该卫星已退役。
2D轨道图
3D轨道图
轨道高度分析图
轨道倾角分析图
轨道综合分析图
查看轨道综合分析图